Dewpoint
21 20 16 16 16 18 23 13 10 9 10 9 9 9 8 8 9 12 12 8 2 2 5 5 8 8 12 14 17 25 49 49 49 50 51 52 53 54 54 54 54 54 55 57 60 60 61 62 62 62 63 63 63 63 63 62 62 63 62 63 63 65 65 64 64 65 65 65 65 65 65 65 65 64 65 65 65 64 65 66 65 65 65 65 66 65
20 20 19 17 16 15 17 22 25 20 22 11 12 13 11 12 13 14 15 9 13 19 7 15 9 11 13 21 17 25 48 48 49 49 49 51 52 53 54 53 53 54 55 57 58 59 60 61 63 62 63 63 62 62 62 61 61 62 62 63 64 65 64 64 64 64 64 65 65 65 65 65 65 65 65 65 65 64 65 65 65 65 65 65 65 65
22 19 20 18 17 20 23 25 25 26 23 21 16 15 15 13 17 17 18 16 14 12 13 14 7 9 18 21 24 21 38 47 49 48 48 49 51 52 54 53 53 54 55 56 57 59 61 61 64 64 63 62 62 62 61 61 61 61 62 63 64 64 64 64 64 64 64 65 65 65 65 65 64 64 65 65 65 65 64 64 65 65 64 64 64 65
23 18 19 18 20 22 21 20 22 26 29 22 21 16 12 12 14 14 22 12 12 18 16 18 10 22 30 27 24 24 23 27 47 48 48 49 51 52 53 53 53 54 54 55 57 58 61 64 63 62 61 61 61 61 61 61 61 62 63 63 63 63 64 63 63 64 64 65 65 64 64 65 64 63 65 65 65 65 64 64 64 63 64 64 64 64
17 17 18 18 17 17 20 20 23 20 14 29 22 14 12 15 16 15 18 17 25 23 28 23 28 24 29 17 20 20 24 19 38 47 47 49 51 52 53 54 54 54 54 55 56 60 61 61 61 61 61 61 60 61 60 60 61 62 63 63 63 63 63 63 64 64 64 65 65 64 64 64 64 64 65 65 65 65 65 64 64 64 64 64 64 64
22 21 18 15 15 13 16 14 16 21 16 21 31 22 23 22 21 22 23 17 22 17 25 13 11 17 24 24 23 20 20 23 23 44 45 47 49 50 53 54 54 54 54 55 57 59 61 60 60 60 60 60 60 60 60 61 62 62 63 63 63 63 63 63 63 63 64 65 65 64 63 63 63 63 63 63 63 63 63 64 64 64 64 64 64 64
22 24 18 14 14 12 11 11 11 18 17 22 22 27 23 21 24 23 20 18 11 9 17 24 12 13 22 19 19 23 35 43 45 44 43 42 40 42 46 50 53 53 55 57 58 58 58 59 58 58 58 59 59 60 61 62 62 62 63 63 63 63 63 63 63 64 64 64 64 64 63 63 63 62 64 64 64 64 63 63 63 63 63 64 63 63
20 19 19 15 15 12 12 12 11 14 20 19 25 24 20 20 19 21 20 14 17 24 26 22 18 9 10 15 22 30 43 45 47 48 50 50 50 42 44 53 55 55 56 57 57 58 58 58 57 57 58 59 59 60 61 61 62 62 62 63 63 63 63 63 64 64 65 64 64 63 63 63 62 62 63 64 63 63 63 62 62 63 63 63 63 63
28 22 20 18 15 12 10 11 16 16 16 19 24 20 18 17 20 15 13 15 17 18 11 23 18 12 12 28 39 37 41 43 46 49 50 51 52 52 53 56 57 58 57 57 57 57 57 57 57 57 58 59 59 60 60 61 61 62 63 63 63 63 63 63 64 64 64 64 64 63 63 62 62 62 63 63 63 63 63 62 61 62 63 63 63 63
20 19 17 16 15 13 12 10 17 15 15 17 21 20 20 16 14 13 15 12 21 12 9 18 23 7 11 40 43 43 43 44 46 48 50 52 52 53 54 56 57 57 58 58 58 58 58 58 57 58 58 58 59 60 60 61 61 62 62 62 62 62 63 63 63 64 64 64 63 63 62 62 62 62 62 63 62 62 62 61 61 61 61 62 62 63
16 25 25 17 14 15 14 14 16 18 17 18 16 15 13 17 17 26 24 24 17 8 14 21 26 7 17 40 43 43 45 46 47 48 50 51 53 54 54 55 56 57 57 57 58 58 58 58 58 58 58 58 58 59 59 59 60 61 62 62 62 61 62 62 62 63 63 63 62 61 61 61 61 61 62 62 61 61 60 60 60 60 61 62 61 62
14 12 12 13 20 17 17 17 17 16 16 13 15 15 12 16 20 20 21 22 8 11 20 21 16 10 8 27 44 49 50 50 49 49 50 51 52 54 55 55 56 57 57 57 57 57 58 58 57 58 58 58 58 58 59 59 60 61 61 60 60 61 61 62 63 63 63 64 63 63 62 61 61 62 62 61 61 61 60 59 59 59 60 60 60 61
19 14 11 12 26 15 14 15 14 15 12 12 16 16 12 12 12 6 13 5 7 11 15 18 12 26 36 40 47 48 50 50 50 51 51 52 52 53 54 55 56 56 57 57 57 57 58 57 57 57 58 58 58 58 59 60 60 61 62 61 61 61 62 62 62 62 62 63 63 63 62 61 61 61 62 61 61 60 60 59 59 60 59 60 60 60
16 20 10 10 15 22 15 14 14 12 12 10 10 17 12 8 8 4 13 11 12 14 20 17 19 22 38 41 47 48 50 50 50 51 51 52 52 52 53 54 55 55 56 56 56 56 56 57 57 58 58 58 58 59 59 59 60 60 61 61 61 61 62 62 62 63 63 63 63 63 62 61 62 61 61 61 61 60 60 60 60 60 60 59 59 59
11 12 12 13 12 17 15 15 14 19 15 10 13 11 14 16 13 5 10 5 7 7 18 25 12 18 32 38 46 49 51 51 51 51 51 52 52 53 53 53 54 55 55 55 54 56 56 57 58 58 58 58 59 59 59 59 60 59 59 60 61 62 62 62 62 63 63 63 63 63 62 62 62 61 61 61 61 60 60 60 60 60 60 59 59 59
13 17 18 15 14 17 14 18 16 15 15 18 13 14 14 13 21 11 17 16 16 13 13 22 21 33 38 45 47 49 51 51 52 52 52 52 52 53 53 53 53 54 55 55 55 55 56 57 58 58 58 58 58 59 59 59 59 60 60 60 61 62 62 62 62 62 63 63 63 63 62 62 61 61 61 60 60 59 60 60 60 60 59 59 59 60
16 19 24 18 18 16 16 19 19 15 16 23 11 12 12 18 12 14 13 23 17 17 11 23 35 38 41 44 45 49 50 51 51 51 52 52 52 53 53 53 54 54 54 55 55 55 55 56 56 57 57 57 57 57 58 59 60 60 60 60 60 60 61 61 62 62 62 63 62 62 62 62 61 61 60 60 59 59 59 60 59 60 59 59 60 60
17 20 28 15 13 16 18 17 17 16 20 12 14 12 16 18 21 17 13 15 9 8 14 27 33 34 31 28 41 46 48 48 50 51 51 51 52 52 53 53 54 54 54 55 56 56 56 55 56 57 58 58 58 58 58 59 60 61 60 59 59 59 60 61 61 61 62 62 62 62 62 62 61 61 60 60 59 60 59 59 59 60 59 59 60 60
16 11 17 19 14 16 18 16 14 14 15 12 13 16 12 12 9 22 18 5 5 5 7 26 31 31 30 33 40 44 47 48 49 50 50 50 50 50 51 51 51 51 51 51 52 52 53 54 57 57 57 58 59 58 58 58 59 60 60 60 60 59 61 62 62 61 61 61 62 62 62 61 61 61 61 60 60 60 59 59 60 59 60 60 60 60
27 14 19 24 18 16 15 15 17 16 13 14 11 11 20 24 24 10 14 14 14 10 10 18 28 22 35 37 44 46 47 48 47 48 49 49 49 49 50 49 49 50 50 50 51 52 52 53 53 56 57 57 57 58 58 58 58 59 58 58 59 61 62 62 62 61 61 61 62 62 62 62 62 61 61 60 60 60 59 59 59 58 59 59 60 59
13 25 13 22 24 16 17 17 17 17 14 14 13 14 13 22 24 17 25 13 10 12 12 19 22 27 36 45 46 47 48 49 48 47 48 48 49 49 48 49 49 48 48 49 50 50 50 51 52 53 54 56 56 56 58 59 58 58 59 58 59 59 60 60 61 60 60 60 61 62 62 61 61 61 61 60 60 60 59 59 59 59 59 59 59 58
13 16 19 26 18 22 19 22 16 15 14 16 15 15 12 12 10 10 15 26 21 18 15 19 21 31 44 48 48 48 48 49 49 48 48 48 48 48 47 47 47 47 47 47 48 48 49 49 49 50 51 53 53 55 55 57 58 58 58 59 58 58 59 59 60 60 60 60 60 61 62 61 61 61 61 60 59 60 59 59 59 59 59 59 58 58
26 27 22 14 19 20 20 33 33 27 22 20 20 29 19 21 19 18 9 19 25 28 29 29 31 31 45 48 48 47 47 48 48 48 47 47 47 47 46 46 46 46 47 46 47 47 47 48 48 48 49 50 51 53 53 54 55 56 58 58 59 59 58 58 60 61 61 61 61 61 61 62 61 61 60 60 59 59 59 59 59 59 59 58 59 58
52 20 18 18 19 25 23 30 33 35 36 37 37 38 34 30 22 18 22 26 24 25 24 24 31 35 44 48 48 47 47 46 46 46 46 47 46 45 45 44 44 44 45 45 45 46 46 46 47 47 48 48 49 50 51 52 52 54 55 56 58 58 59 60 59 60 61 61 61 60 60 61 61 61 60 59 58 58 59 59 59 60 58 58 59 58
23 27 21 19 16 20 22 27 30 33 35 36 36 38 38 34 34 33 31 29 27 27 27 27 28 34 45 48 46 45 44 43 43 43 43 44 44 43 43 43 43 43 43 43 43 44 45 45 46 46 47 47 48 49 49 50 50 51 52 53 54 55 57 59 59 60 61 61 60 59 59 60 61 61 60 59 59 59 59 59 58 59 58 58 58 58
32 31 27 19 16 11 11 16 26 28 33 34 40 39 40 39 37 27 18 25 27 28 30 29 32 39 44 45 44 44 42 41 41 42 42 42 41 41 42 42 42 42 42 42 42 42 43 44 45 46 46 47 47 48 48 49 49 50 50 51 52 53 54 56 59 59 60 60 60 59 59 59 60 60 60 59 59 59 59 58 58 58 57 57 57 57
34 35 32 26 24 22 26 31 35 35 37 35 37 38 39 39 38 31 29 27 28 28 31 36 38 39 40 41 41 41 40 40 40 40 40 40 41 41 41 41 41 41 41 41 41 41 41 41 42 44 46 46 46 47 47 48 48 49 49 50 50 51 53 55 57 59 58 59 60 59 59 59 59 60 60 59 59 59 58 58 58 57 56 57 57 56
34 32 35 35 34 34 37 37 38 38 37 37 37 37 38 38 38 34 26 26 32 33 32 39 40 38 38 39 40 39 39 38 38 39 39 40 40 40 40 40 41 40 40 40 40 40 40 40 40 41 44 45 45 46 46 47 47 48 48 48 49 49 51 53 55 58 59 59 59 59 59 59 59 59 59 58 58 59 58 57 57 56 56 57 56 56
33 31 36 36 35 36 36 35 36 35 36 36 37 37 37 38 38 37 37 38 33 30 32 39 39 37 37 38 39 39 39 38 37 37 38 40 40 39 39 39 39 39 40 40 40 40 40 40 40 40 40 43 44 44 45 46 46 47 47 48 48 48 50 51 54 58 59 59 59 59 59 59 59 59 57 58 58 58 58 58 57 56 56 56 55 55
35 33 36 36 35 35 35 35 35 35 35 35 35 36 37 37 37 38 38 38 37 37 40 39 37 35 37 37 38 39 40 39 38 38 37 37 39 39 38 39 38 38 39 39 39 40 40 40 39 39 40 40 42 42 43 44 45 46 46 47 47 48 49 50 53 57 59 59 59 59 59 59 59 59 58 58 58 58 58 58 57 55 54 54 54 53
35 31 39 36 34 34 34 35 34 34 34 33 34 35 36 36 36 36 37 38 38 37 36 36 34 33 37 38 38 39 39 38 37 37 36 36 37 38 38 38 38 38 38 38 39 39 40 40 39 39 39 39 40 40 42 43 44 44 45 46 46 47 48 49 51 54 58 58 58 58 58 58 58 58 58 58 58 57 58 57 56 54 54 54 53 52
37 32 37 31 31 32 34 33 33 33 32 32 33 34 36 35 34 35 34 36 37 35 36 35 33 31 36 37 37 37 37 37 36 36 36 37 37 37 38 38 38 38 38 38 38 39 40 40 39 39 39 39 40 40 40 41 42 43 44 45 46 47 48 48 49 50 51 56 58 58 58 58 58 58 58 57 57 57 57 56 55 54 54 53 52 51
39 34 31 30 28 30 35 35 34 32 30 28 30 33 36 36 36 37 37 37 37 37 34 32 32 37 37 36 34 34 35 35 36 36 36 37 37 37 37 38 38 38 38 38 38 39 40 40 39 38 39 39 39 40 40 40 41 42 43 44 45 47 47 47 48 48 49 50 54 57 57 57 57 57 57 56 56 56 56 56 55 54 52 51 51 49
39 37 33 36 30 31 36 36 34 28 23 23 34 37 39 35 35 34 33 35 36 37 34 35 35 36 36 35 34 34 34 35 36 37 38 38 37 37 37 38 38 38 38 38 38 39 39 39 40 38 38 39 39 39 40 40 40 41 42 44 44 45 46 46 47 47 47 48 50 52 55 55 56 56 56 56 56 56 56 54 52 51 50 49 48 46
36 35 33 36 31 31 35 34 26 21 23 33 38 39 37 36 36 35 36 36 36 36 36 35 35 35 35 35 35 35 35 36 38 37 37 38 38 38 37 37 38 39 38 38 38 39 39 39 39 38 38 38 39 39 39 39 39 40 40 41 42 43 45 45 46 46 47 47 48 49 51 53 53 54 54 54 54 53 52 51 50 48 47 46 45 44
34 33 32 31 31 31 32 30 20 21 32 36 37 38 40 37 36 34 33 36 37 36 35 34 35 35 35 35 35 36 35 35 35 37 38 38 38 38 38 37 37 38 38 39 38 39 39 40 39 38 38 39 39 38 38 38 39 39 40 41 41 42 43 45 45 45 46 46 47 47 49 50 51 52 52 52 52 51 50 50 49 48 47 44 43 42
35 33 32 30 30 29 30 29 28 33 32 33 33 35 37 34 35 33 30 33 37 39 36 35 35 35 35 35 36 36 36 34 33 34 36 37 38 39 39 39 39 39 39 39 40 39 39 40 39 39 39 38 38 39 38 38 38 39 39 39 40 41 42 43 44 45 45 46 46 47 47 48 49 50 50 51 50 50 49 49 48 48 46 44 43 41
37 31 31 30 29 30 29 26 27 27 24 29 34 38 39 40 39 37 32 31 38 39 38 36 35 35 35 35 36 36 38 34 30 31 36 37 38 38 39 39 39 40 40 40 40 39 38 38 39 39 38 38 38 38 39 38 38 38 39 39 39 40 40 42 43 44 45 46 46 46 47 47 47 47 48 49 49 49 49 48 49 48 48 45 44 43
34 34 33 31 30 30 29 26 25 24 25 32 34 36 38 40 40 37 32 29 36 38 40 37 37 37 37 36 37 37 36 31 29 32 35 37 38 39 38 39 39 39 39 39 38 37 37 37 37 38 37 37 36 37 38 38 38 37 38 39 39 39 39 40 42 44 45 46 46 46 46 47 47 47 47 47 47 48 48 48 48 48 48 48 47 46
31 30 30 29 27 26 28 26 24 29 27 33 36 37 38 38 41 36 26 26 35 38 41 39 38 38 39 38 38 37 35 29 30 33 36 37 37 38 39 38 39 39 39 39 38 38 37 37 36 36 35 35 36 37 37 38 37 38 37 38 38 39 39 40 40 42 44 45 46 47 47 46 46 47 46 46 47 47 47 48 48 47 47 46 46 45
28 28 29 28 26 27 27 26 28 29 33 36 36 38 38 40 39 30 25 30 37 39 39 38 37 37 38 37 36 33 35 36 35 36 36 36 36 36 37 39 39 39 39 39 40 40 38 36 36 36 36 36 36 36 37 37 38 38 38 38 37 38 39 40 40 40 41 42 43 45 46 47 46 46 46 47 47 47 47 47 47 47 46 46 45 45
27 28 29 29 28 25 23 25 26 29 34 37 38 39 38 36 29 26 33 39 40 38 39 38 37 37 37 36 36 35 36 36 36 35 35 35 36 36 36 37 38 38 38 39 39 39 38 37 37 37 37 37 37 37 37 37 37 38 38 38 38 38 39 39 39 39 38 39 39 40 42 45 46 47 46 46 46 46 46 47 47 47 47 46 45 43
27 27 29 29 28 28 27 25 25 22 32 38 37 37 37 31 31 37 39 40 39 38 37 37 36 36 36 35 36 36 36 36 36 36 36 37 37 37 37 37 37 38 38 38 38 38 39 37 38 38 38 38 38 38 38 38 38 38 38 37 38 39 39 39 40 38 37 37 38 40 40 41 43 45 46 46 46 46 46 46 47 46 46 46 45 44
30 29 28 29 31 26 24 23 23 31 34 38 37 31 35 37 40 40 39 37 38 38 38 37 36 35 35 35 35 35 35 35 35 36 36 36 37 37 38 38 38 38 39 39 39 39 39 38 38 38 38 39 40 40 39 38 38 38 38 38 38 38 38 39 39 39 37 36 35 38 40 41 41 41 42 43 44 44 44 45 45 46 46 46 46 45
33 30 30 28 33 29 27 30 34 37 38 39 38 38 39 40 40 40 38 38 36 36 37 36 36 35 35 35 34 34 34 34 34 35 35 36 37 37 37 37 37 38 39 39 40 40 40 40 40 40 39 39 40 40 40 39 39 39 39 40 40 38 37 38 39 40 40 38 35 35 36 37 38 40 40 41 43 42 43 42 43 44 44 45 45 45
35 34 35 34 32 35 36 37 38 37 38 38 39 39 39 39 40 39 38 37 37 37 36 36 36 36 35 34 34 34 34 34 34 35 35 36 36 37 38 39 39 38 38 39 39 39 40 40 40 40 39 39 40 40 41 41 40 40 40 42 42 40 38 38 38 38 40 40 37 35 35 35 35 35 36 37 37 37 39 40 41 42 42 43 43 43
37 35 34 32 33 30 26 35 35 36 37 37 38 38 38 39 39 38 37 37 37 37 36 36 36 35 35 35 34 34 34 34 34 34 35 35 35 35 36 36 37 36 35 36 38 39 40 40 39 39 39 38 39 38 39 40 41 41 41 41 41 41 41 39 38 38 38 38 40 38 36 37 34 34 35 35 35 35 35 35 35 36 37 39 40 41
32 35 32 33 32 30 30 33 34 35 36 36 37 37 37 37 36 36 36 36 36 36 36 35 35 35 35 34 34 34 34 34 34 34 34 35 35 36 36 36 36 36 37 38 38 38 38 39 38 38 38 38 38 38 38 39 39 41 42 42 41 40 40 41 40 40 39 39 38 38 38 38 34 34 34 34 34 34 34 34 35 34 35 35 37 39
33 35 29 31 30 33 33 34 34 34 35 35 36 36 36 36 37 38 37 37 37 36 36 37 38 38 37 37 37 37 37 38 38 36 36 36 36 37 37 37 37 37 37 37 38 38 38 38 38 38 38 37 38 38 38 38 38 40 42 42 42 41 40 41 40 41 41 41 40 39 37 36 38 37 35 34 33 33 34 34 34 34 34 34 35 36
31 30 31 30 29 29 29 31 33 29 29 34 35 36 36 37 37 37 36 36 36 36 36 35 35 35 35 35 36 36 36 36 37 38 38 38 37 37 37 38 37 37 37 37 38 38 37 38 38 38 37 37 38 37 38 38 38 38 39 39 39 40 40 40 41 41 41 41 41 40 41 38 35 36 36 36 34 33 33 33 34 34 33 33 34 35
30 30 30 29 29 29 31 33 33 32 33 34 35 36 36 37 37 36 35 35 35 36 36 35 35 34 34 34 34 35 35 35 35 36 37 36 36 37 37 37 37 37 38 38 38 37 38 38 40 39 38 38 38 38 38 39 39 40 40 40 41 39 39 39 40 40 40 40 40 39 40 41 40 37 35 35 36 34 33 32 32 33 34 34 34 34